STARLINK-34976 (65209 NORAD) Tracking and Keplerian Element Data

This shows tracking and keplerian element data for the satellite.

Feedback or suggestion? Click here.




ElementValue
Catalog65209
NameSTARLINK-34976
Epoch Orbit2083
Epoch Day353.46652983
Epoch Year2025
RAAN165.6603
Inclination53.1586
Eccentricity0.0001569
Argument of Perigee88.4377
Mean Anonmoly271.6803
Mean Motion15.30201101
Decay Rate0.00014499
L11 65209U 25176M 25353.46652983 .00014499 00000+0 50068-3 0 9992
L22 65209 53.1586 165.6603 0001569 88.4377 271.6803 15.30201101 20831



Live tracking and technical data element details for STARLINK-34976 (NORAD 65209). STARLINK-34976 can be tracked NOW for your location showing map with azimuth and elevation plus other details from your city location.







IsCatalogInMostPopularTable: catalog: 65209, numindb: 7
Update: records affected: 1



GetName: 65209 STARLINK-34976

Hit Count: updated at: Sat, 11 Apr 2026 21:48:12 GMT